date,time edt,temp c,spcond (ms/cm),ph,do (mg/l),do (%),turbidity (fnu),chlorophyll (rfu),phycocyanin (rfu)
06/08/2021,14:45,27.96,1.3,8.69,12.01,153.9,3.63,11.49,.92
06/08/2021,15:00,27.9,1.26,8.57,12.07,154.5,3.55,12.09,.88
06/08/2021,15:15,27.88,1.26,8.58,12.06,154.2,3.67,11.79,1.03
06/08/2021,15:30,27.89,1.26,8.6,12.13,155.2,3.53,11.99,.97
06/08/2021,15:45,27.85,1.26,8.51,12.2,156,3.55,11.84,.99
06/08/2021,16:00,27.73,1.26,8.48,12.06,153.9,3.83,13.13,1.05
06/08/2021,16:15,27.74,1.26,8.55,12.01,153.2,3.49,14.37,1.05
06/08/2021,16:30,27.64,1.26,8.48,12,152.9,3.74,14.04,1.16
06/08/2021,16:45,27.69,1.26,8.6,12.21,155.7,3.68,13.67,1.13
06/08/2021,17:00,27.61,1.31,8.57,11.86,150.9,3.78,15.6,1.14
06/08/2021,17:15,27.67,1.31,8.67,12.21,155.7,3.57,13.35,1.18
06/08/2021,17:30,27.61,1.32,8.62,11.95,152.1,3.72,14.44,1.23
06/08/2021,17:45,27.61,1.33,8.69,12.15,154.7,3.49,17.03,1.35
06/08/2021,18:00,27.67,1.33,8.77,12.06,153.8,3.72,17.3,1.4
06/08/2021,18:15,27.58,1.33,8.74,11.94,151.9,3.61,17.93,1.35
06/08/2021,18:30,27.32,1.3,8.54,11.52,146,3.64,18.22,1.5
06/08/2021,18:45,27.21,1.3,8.49,11.67,147.5,3.59,16.58,1.5
06/08/2021,19:00,27.36,1.29,8.71,11.94,151.4,3.78,17.69,1.46
06/08/2021,19:15,27.27,1.33,8.64,11.72,148.3,3.67,18.93,1.48
06/08/2021,19:30,26.85,1.4,7.96,10.1,126.9,4.08,17.01,1.47
06/08/2021,19:45,26.69,1.46,7.9,9.27,116.1,4.38,18.58,1.53
06/08/2021,20:00,26.81,1.4,7.94,9.9,124.3,3.87,20.35,1.55
06/08/2021,20:15,26.95,1.36,8.27,10.26,129.2,3.91,19.71,1.49
06/08/2021,20:30,27.03,1.34,8.46,10.51,132.4,3.42,19.25,1.51
06/08/2021,20:45,27.11,1.33,8.47,10.94,138.1,3.93,17.74,1.45
06/08/2021,21:00,27.13,1.32,8.51,11.29,142.6,3.36,16.34,1.39
06/08/2021,21:15,27.05,1.33,8.43,11.11,140,3.34,16.84,1.37
06/08/2021,21:30,26.98,1.33,8.36,10.74,135.3,3.56,16.35,1.36
06/08/2021,21:45,26.98,1.32,8.49,10.99,138.4,3.2,17.18,1.32
06/08/2021,22:00,26.92,1.32,8.43,10.88,136.9,3.33,16.3,1.37
06/08/2021,22:15,26.9,1.32,8.49,10.86,136.5,3.36,15.05,1.36
06/08/2021,22:30,26.86,1.31,8.43,10.67,134.1,3.32,16.11,1.36
06/08/2021,22:45,26.81,1.31,8.37,10.49,131.6,3.4,16.06,1.28
06/08/2021,23:00,26.68,1.29,8.11,10.02,125.4,3.32,16.31,1.39
06/08/2021,23:15,26.54,1.24,8.05,9.61,120,3.87,16.73,1.41
06/08/2021,23:30,26.48,1.24,7.82,9.68,120.7,3.71,16,1.39
06/08/2021,23:45,26.34,1.21,7.61,9.38,116.7,3.79,15.08,1.34
06/09/2021,00:00,26.43,1.23,7.75,9.16,114.1,3.82,14.97,1.33
06/09/2021,00:15,26.36,1.22,7.75,9.24,115,3.67,15.62,1.3
06/09/2021,00:30,26.31,1.21,7.58,9.35,116.3,3.72,15.52,1.26
06/09/2021,00:45,26.34,1.24,7.8,9.2,114.5,3.95,16.37,1.27
06/09/2021,01:00,26.29,1.22,7.86,9.17,114,4.33,15.55,1.25
06/09/2021,01:15,26.33,1.24,7.9,9.28,115.5,3.69,15.7,1.24
06/09/2021,01:30,26.29,1.24,7.75,9.2,114.4,3.38,13.91,1.2
06/09/2021,01:45,26.32,1.25,7.92,9.37,116.6,3.59,15.05,1.23
06/09/2021,02:00,26.29,1.24,7.8,9.13,113.5,3.75,14.96,1.25
06/09/2021,02:15,26.22,1.24,7.7,9.05,112.3,3.65,15.95,1.23
06/09/2021,02:30,26.2,1.24,7.7,8.88,110.3,3.86,14.2,1.18
06/09/2021,02:45,26.2,1.24,7.65,8.5,105.6,3.62,15.45,1.23
06/09/2021,03:00,26.19,1.25,7.81,8.94,111,3.86,15.49,1.21
06/09/2021,03:15,26.18,1.26,7.8,8.97,111.3,3.59,16.17,1.22
06/09/2021,03:30,26.18,1.26,7.81,8.94,110.9,4.03,14.15,1.22
06/09/2021,03:45,26.16,1.27,7.75,8.82,109.3,3.82,14.07,1.28
06/09/2021,04:00,26.15,1.27,7.77,8.84,109.6,3.79,14.29,1.25
06/09/2021,04:15,26.13,1.27,7.74,8.77,108.7,3.68,13.93,1.18
06/09/2021,04:30,26.11,1.27,7.75,8.75,108.5,3.4,15.47,1.2
06/09/2021,04:45,26.1,1.27,7.68,8.55,105.9,3.73,13.42,1.15
06/09/2021,05:00,26.07,1.27,7.66,8.52,105.5,3.84,14.89,1.21
06/09/2021,05:15,26.05,1.27,7.62,8.35,103.4,4.13,16.09,1.19
06/09/2021,05:30,26.02,1.27,7.64,8.33,103,3.61,14.09,1.05
06/09/2021,05:45,25.98,1.27,7.55,8.17,101,3.7,15.54,1.07
06/09/2021,06:00,25.94,1.26,7.47,8.02,99.1,3.81,14.99,1.18
06/09/2021,06:15,25.93,1.27,7.46,7.98,98.6,3.78,14.17,1.07
06/09/2021,06:30,25.9,1.26,7.43,7.91,97.7,4.09,14.63,.96
06/09/2021,06:45,25.88,1.26,7.35,7.78,96,4.14,13.86,1.09
06/09/2021,07:00,25.87,1.26,7.38,7.77,95.8,4.25,14.49,1.05
06/09/2021,07:15,25.87,1.26,7.41,7.83,96.6,4.11,14.63,1.09
06/09/2021,07:30,25.86,1.27,7.37,7.67,94.6,4.3,17.11,1.15
06/09/2021,07:45,25.86,1.27,7.41,7.83,96.6,4.3,14.84,1.08
06/09/2021,08:00,25.88,1.27,7.4,7.89,97.4,4.22,13.39,1.08
06/09/2021,08:15,25.91,1.28,7.41,8.06,99.5,4.28,13.75,1.05
06/09/2021,08:30,25.96,1.28,7.47,8.21,101.5,4.55,15.14,1.2
06/09/2021,08:45,25.95,1.28,7.42,8.16,100.9,4.24,14.77,1.18
06/09/2021,09:00,25.98,1.29,7.47,8.35,103.3,4.41,14.34,1.07
06/09/2021,09:15,25.99,1.29,7.51,8.39,103.7,4.38,15.03,1.05
06/09/2021,09:30,26,1.3,7.47,8.36,103.4,4.44,12.75,1.13
06/09/2021,09:45,26.03,1.3,7.51,8.55,105.8,4.58,13.18,1.07
06/09/2021,10:00,26.06,1.3,7.52,8.6,106.5,4.6,12.4,1.08
06/09/2021,10:15,26.13,1.31,7.65,8.75,108.5,5.11,12.52,1.08
06/09/2021,10:30,26.25,1.32,7.72,9.07,112.8,4.61,12.74,1.14
06/09/2021,10:45,26.3,1.32,7.79,9.23,114.9,4.72,12.2,1.16
06/09/2021,11:00,26.38,1.32,7.85,9.4,117,4.87,13.38,1.21
06/09/2021,11:15,26.47,1.32,7.96,9.62,120,4.7,12.9,1.22
06/09/2021,11:30,26.59,1.32,8.09,9.93,124.1,4.68,14.39,1.22
06/09/2021,11:45,26.7,1.31,8.14,10.15,127.1,4.7,13.32,1.22
06/09/2021,12:00,26.81,1.31,8.26,10.52,132,4.66,12.02,1.27
06/09/2021,12:15,26.93,1.29,8.39,10.65,134,4.51,15.64,1.34
06/09/2021,12:30,27.03,1.28,8.37,10.78,135.8,4.42,13.84,1.24
06/09/2021,12:45,27.13,1.27,8.44,10.99,138.7,4.35,13.76,1.26
06/09/2021,13:00,27.27,1.25,8.4,11.02,139.4,4.36,13.45,1.22
06/09/2021,13:15,27.35,1.23,8.43,11.2,141.9,4.24,13.8,1.16
06/09/2021,13:30,27.47,1.22,8.38,11.31,143.6,4.25,13.22,1.1
06/09/2021,13:45,27.57,1.22,8.51,11.54,146.7,4.42,14.62,1.27
06/09/2021,14:00,27.65,1.23,8.64,11.9,151.6,4.23,13.47,1.23
06/09/2021,14:15,27.76,1.25,8.7,12.31,157.1,4.02,14.61,1.23
06/09/2021,14:30,27.86,1.24,8.81,12.54,160.3,4.18,14.69,1.32
06/09/2021,14:45,28.01,1.22,8.84,12.92,165.6,4,13.06,1.35
06/09/2021,15:00,28.1,1.22,8.8,12.72,163.3,4,13.7,1.25
06/09/2021,15:15,28.26,1.2,8.82,12.78,164.5,4.13,14.64,1.28
06/09/2021,15:30,28.37,1.2,8.86,12.94,167,3.88,14.23,1.35
06/09/2021,15:45,28.44,1.21,8.87,13.09,169,3.98,13.69,1.32
06/09/2021,16:00,28.47,1.2,8.79,12.76,164.9,3.88,15.43,1.3
06/09/2021,16:15,28.6,1.18,8.74,12.95,167.7,3.91,13.26,1.3
06/09/2021,16:30,28.61,1.16,8.58,12.79,165.7,3.7,13.29,1.18
06/09/2021,16:45,28.62,1.15,8.59,12.76,165.3,3.89,13.5,1.23
06/09/2021,17:00,28.63,1.15,8.51,12.7,164.5,3.74,12.87,1.25
06/09/2021,17:15,28.55,1.13,8.42,12.52,162,3.76,13.15,1.21
06/09/2021,17:30,28.47,1.12,8.35,12.36,159.7,3.82,13.61,1.2
06/09/2021,17:45,28.46,1.13,8.33,12.16,157.1,3.88,13.31,1.24
06/09/2021,18:00,28.4,1.11,8.33,12.1,156.1,3.92,14.22,1.22
06/09/2021,18:15,28.29,1.12,8.28,12.01,154.7,4.11,14.94,1.36
06/09/2021,18:30,28.2,1.12,8.39,12.1,155.5,4.02,17.4,1.52
06/09/2021,18:45,28.22,1.11,8.36,12.03,154.7,3.77,15.01,1.39
06/09/2021,19:00,28.06,1.13,8.45,12.02,154.2,4.1,15.88,1.35
06/09/2021,19:15,28.19,1.11,8.52,12.01,154.3,3.84,17.93,1.56
06/09/2021,19:30,27.93,1.13,8.44,11.97,153.3,4.01,19.18,1.84
06/09/2021,19:45,27.67,1.16,8.3,11.98,152.6,4.12,22.56,1.97
06/09/2021,20:00,27.58,1.19,8.33,11.91,151.5,4.48,19.74,2.04
06/09/2021,20:15,27.49,1.22,8.26,11.82,150.2,4.36,22.68,2.03
06/09/2021,20:30,27.51,1.19,8.42,11.73,149.1,4.2,23.68,2.18
06/09/2021,20:45,27.53,1.19,8.39,11.72,148.9,4.26,20.59,2.09
06/09/2021,21:00,27.46,1.2,8.34,11.41,144.9,4.78,23.25,2.2
06/09/2021,21:15,27.4,1.21,8.26,11.1,140.8,4.48,20.69,2.21
06/09/2021,21:30,27.44,1.21,8.27,11.02,139.8,4.55,21.16,2.08
06/09/2021,21:45,27.48,1.19,8.27,11.03,140,4.74,20.86,1.9
06/09/2021,22:00,27.47,1.2,8.22,10.88,138.1,4.35,20.01,1.95
06/09/2021,22:15,27.5,1.18,8.34,11.14,141.6,4.38,20.58,1.87
06/09/2021,22:30,27.4,1.16,8.25,11.1,140.7,4,18.16,1.71
06/09/2021,22:45,27.33,1.18,8.1,10.8,136.7,4.22,18.58,1.73
06/09/2021,23:00,27.2,1.18,8,10.64,134.4,4.18,18.21,1.7
06/09/2021,23:15,27.12,1.18,7.91,10.34,130.4,4.47,20.16,1.73
06/09/2021,23:30,27,1.18,7.92,10.26,129.2,4.47,18.35,1.81
06/09/2021,23:45,26.91,1.19,7.94,10.22,128.5,4.69,19.58,1.74
06/10/2021,00:00,26.91,1.18,7.95,10.2,128.2,4.37,18.53,1.75
06/10/2021,00:15,26.91,1.19,8.03,10.13,127.3,4.41,17.07,1.65
06/10/2021,00:30,26.87,1.19,8.02,9.92,124.5,4.51,19.26,1.71
06/10/2021,00:45,26.85,1.19,8.01,9.99,125.4,4.11,17.72,1.67
06/10/2021,01:00,26.8,1.19,7.98,9.91,124.3,4.44,16.24,1.5
06/10/2021,01:15,26.77,1.19,7.97,9.86,123.6,4.97,18.19,1.56
06/10/2021,01:30,26.74,1.18,7.98,9.81,122.9,5.28,17.67,1.5
06/10/2021,01:45,26.71,1.2,7.95,9.73,121.8,4.29,18.48,1.68
06/10/2021,02:00,26.67,1.2,7.93,9.65,120.7,4.99,16.76,1.5
06/10/2021,02:15,26.61,1.21,7.88,9.56,119.5,4.54,17.4,1.62
06/10/2021,02:30,26.56,1.2,7.86,9.51,118.8,4.89,16.78,1.6
06/10/2021,02:45,26.52,1.21,7.83,9.41,117.5,4.65,19.24,1.64
06/10/2021,03:00,26.47,1.21,7.8,9.34,116.5,4.65,16.43,1.47
06/10/2021,03:15,26.45,1.2,7.78,9.25,115.4,4.62,17.13,1.55
06/10/2021,03:30,26.41,1.21,7.75,9.14,113.9,4.77,18.31,1.65
06/10/2021,03:45,26.37,1.21,7.73,9.09,113.2,5.34,19.54,1.58
06/10/2021,04:00,26.3,1.2,7.71,9.09,113,4.8,17.67,1.57
06/10/2021,04:15,26.28,1.2,7.68,8.97,111.5,4.96,17.73,1.57
06/10/2021,04:30,26.23,1.21,7.64,8.87,110.2,4.43,18.36,1.44
06/10/2021,04:45,26.18,1.2,7.63,8.8,109.2,4.87,16.02,1.47
06/10/2021,05:00,26.12,1.19,7.57,8.73,108.2,5.09,18.55,1.63
06/10/2021,05:15,26.09,1.19,7.58,8.64,107.1,5.12,18.42,1.64
06/10/2021,05:30,26.02,1.2,7.56,8.54,105.7,5.42,17.62,1.56
06/10/2021,05:45,25.96,1.2,7.51,8.48,104.8,5.3,18.23,1.6
06/10/2021,06:00,25.93,1.2,7.49,8.37,103.4,5.63,18.56,1.58
06/10/2021,06:15,25.88,1.2,7.51,8.4,103.7,5.05,17.96,1.49
06/10/2021,06:30,25.84,1.2,7.46,8.38,103.3,5.18,17.53,1.42
06/10/2021,06:45,25.8,1.2,7.41,8.35,102.9,5.3,18.94,1.32
06/10/2021,07:00,25.76,1.2,7.42,8.45,104.1,5.45,14.85,1.27
06/10/2021,07:15,25.77,1.2,7.43,8.48,104.4,5.57,14.95,1.37
06/10/2021,07:30,25.8,1.21,7.43,8.33,102.7,5.33,14.85,1.3
06/10/2021,07:45,25.76,1.21,7.44,8.42,103.6,5.55,16.99,1.34
06/10/2021,08:00,25.75,1.2,7.42,8.45,104,5.63,15.74,1.22
06/10/2021,08:15,25.72,1.2,7.44,8.61,106,5.49,13.8,1.23
06/10/2021,08:30,25.71,1.2,7.45,8.67,106.7,5.49,15.79,1.29
06/10/2021,08:45,25.7,1.2,7.47,8.78,108,5.81,15.62,1.33
06/10/2021,09:00,25.73,1.2,7.57,8.83,108.7,5.72,13.5,1.31
06/10/2021,09:15,25.76,1.2,7.6,8.8,108.3,5.85,16.84,1.47
06/10/2021,09:30,25.79,1.21,7.59,8.82,108.6,5.95,13.73,1.33
06/10/2021,09:45,25.84,1.21,7.62,9.01,111.1,5.6,14.55,1.38
06/10/2021,10:00,25.85,1.21,7.61,9.04,111.5,6.44,14.35,1.3
06/10/2021,10:15,25.82,1.21,7.5,8.73,107.6,6.22,14.72,1.3
06/10/2021,10:30,25.82,1.21,7.57,8.95,110.3,6.61,14.46,1.29
06/10/2021,10:45,25.84,1.21,7.72,9.37,115.6,6.12,14.4,1.36
06/10/2021,11:00,25.85,1.22,7.84,9.73,119.9,6.74,15.49,1.39
06/10/2021,11:15,25.89,1.22,8.02,10.04,123.9,6.42,15.05,1.41
06/10/2021,11:30,25.95,1.24,8.1,10.23,126.4,6.85,15.33,1.45
06/10/2021,11:45,25.99,1.24,8.18,10.33,127.7,6.61,16.72,1.5
06/10/2021,12:00,26.06,1.25,8.21,10.47,129.6,6.56,16.1,1.53
06/10/2021,12:15,26.12,1.26,8.24,10.57,131,6.57,16.98,1.6
06/10/2021,12:30,26.19,1.27,8.28,10.69,132.7,6.63,18.31,1.62
06/10/2021,12:45,26.24,1.29,8.31,10.72,133.2,6.43,18.06,1.64
06/10/2021,13:00,26.32,1.3,8.33,10.78,134.1,6.45,16.58,1.67
06/10/2021,13:15,26.35,1.31,8.31,10.77,134,6.5,17.07,1.77
06/10/2021,13:30,26.39,1.31,8.36,10.9,135.8,6.64,19.44,1.83
06/10/2021,13:45,26.43,1.31,8.42,11.1,138.4,6.36,18.06,1.87
06/10/2021,14:00,26.45,1.31,8.42,11.26,140.5,6.05,18.64,1.86
06/10/2021,14:15,26.46,1.32,8.43,11.29,140.9,6.1,18.96,1.93
06/10/2021,14:30,26.49,1.32,8.48,11.51,143.6,5.96,19.51,2.08
06/10/2021,14:45,26.5,1.33,8.49,11.55,144.1,6.3,20.15,2.09
06/10/2021,15:00,26.55,1.32,8.61,11.85,148.1,6.39,20.25,2.09
06/10/2021,15:15,26.58,1.32,8.65,12.05,150.6,6.31,22.02,2.16
06/10/2021,15:30,26.57,1.32,8.61,12.13,151.6,6.2,21.56,2.18
06/10/2021,15:45,26.56,1.33,8.58,11.95,149.3,6.43,24.77,2.24
06/10/2021,16:00,26.6,1.33,8.65,12.32,154,5.78,21.49,2.23
06/10/2021,16:15,26.67,1.33,8.74,12.74,159.5,5.64,24.51,2.37
06/10/2021,16:30,26.65,1.32,8.74,12.79,160.1,5.76,23.84,2.27
06/10/2021,16:45,26.66,1.32,8.77,13.01,162.8,5.64,24.27,2.36
06/10/2021,17:00,26.68,1.32,8.82,13.29,166.4,5.56,21.85,2.39
06/10/2021,17:15,26.63,1.33,8.79,13.15,164.6,5.68,25.11,2.59
06/10/2021,17:30,26.6,1.33,8.77,13.18,164.8,5.97,28.38,2.6
06/10/2021,17:45,26.58,1.33,8.79,13.24,165.5,5.85,24.43,2.42
06/10/2021,18:00,26.53,1.33,8.75,13.16,164.4,5.76,28.62,2.71
06/10/2021,18:15,26.47,1.33,8.73,13.05,162.9,6.21,24.3,2.44
06/10/2021,18:30,26.43,1.32,8.65,12.58,156.9,6.97,27.46,2.61
06/10/2021,18:45,26.35,1.33,8.7,12.83,159.7,6.39,26.43,2.76
06/10/2021,19:00,26.31,1.33,8.69,12.81,159.3,6.76,28.6,2.75
06/10/2021,19:15,26.24,1.33,8.69,12.72,158,6.98,26.62,2.78
06/10/2021,19:30,26.2,1.33,8.68,12.68,157.4,6.9,30.82,2.87
06/10/2021,19:45,26.11,1.33,8.68,12.61,156.3,6.58,28.88,2.93
06/10/2021,20:00,26.05,1.33,8.67,12.52,155.1,6.58,31.22,3.01
06/10/2021,20:15,26,1.33,8.68,12.39,153.2,6.95,29.59,3.02
06/10/2021,20:30,25.91,1.33,8.65,12.26,151.4,6.91,31.68,3
06/10/2021,20:45,25.9,1.32,8.64,12.08,149.1,6.97,29.8,3.01
06/10/2021,21:00,25.78,1.29,8.48,11.63,143.3,6.77,27.41,2.9
06/10/2021,21:15,25.72,1.29,8.46,11.54,142,6.97,26.91,2.8
06/10/2021,21:30,25.6,1.26,8.37,11.25,138.1,7.32,28.02,2.82
06/10/2021,21:45,25.54,1.26,8.32,11.12,136.4,6.64,25.96,2.74
06/10/2021,22:00,25.48,1.26,8.35,11.11,136.2,7.43,28.35,2.86
06/10/2021,22:15,25.38,1.25,8.3,10.89,133.2,6.63,25.45,2.74
06/10/2021,22:30,25.28,1.23,8.17,10.71,130.7,6.55,25.75,2.73
06/10/2021,22:45,25.2,1.23,8.15,10.55,128.6,6.81,26.74,2.54
06/10/2021,23:00,25.16,1.24,8.21,10.66,129.8,6.98,25.86,2.69
06/10/2021,23:15,25.12,1.24,8.26,10.57,128.6,6.67,27.68,2.73
06/10/2021,23:30,25.04,1.22,8.05,10.2,123.9,6.55,25.45,2.59
06/10/2021,23:45,24.97,1.22,8.04,10.23,124.1,6.47,23.98,2.59
06/11/2021,00:00,24.92,1.21,7.97,10.07,122.1,6.44,22.61,2.52
06/11/2021,00:15,24.84,1.21,7.88,9.95,120.4,6.61,23.33,2.43
06/11/2021,00:30,24.83,1.21,7.92,9.92,120.1,6.33,21.7,2.36
06/11/2021,00:45,24.78,1.21,7.86,9.83,118.9,6.43,23.9,2.5
06/11/2021,01:00,24.73,1.2,7.83,9.73,117.5,6.43,23.64,2.31
06/11/2021,01:15,24.69,1.2,7.8,9.64,116.3,6.3,24.41,2.52
06/11/2021,01:30,24.66,1.21,7.81,9.55,115.2,6.75,25.47,2.48
06/11/2021,01:45,24.62,1.21,7.82,9.52,114.8,6.27,24.08,2.42
06/11/2021,02:00,24.59,1.2,7.77,9.38,113,5.88,20.78,2.22
06/11/2021,02:15,24.53,1.2,7.75,9.28,111.8,6.1,23.27,2.35
06/11/2021,02:30,24.49,1.19,7.7,9.14,109.9,6.09,21.76,2.36
06/11/2021,02:45,24.47,1.2,7.73,9.17,110.3,6.58,23.67,2.39
06/11/2021,03:00,24.42,1.19,7.72,9.07,109,6.11,21.64,2.32
06/11/2021,03:15,24.4,1.2,7.68,8.95,107.5,6.3,22.82,2.35
06/11/2021,03:30,24.34,1.18,7.63,8.85,106.1,6.06,23.38,2.48
06/11/2021,03:45,24.28,1.18,7.61,8.76,105,5.91,21.81,2.25
06/11/2021,04:00,24.23,1.18,7.58,8.68,103.9,6.65,22.55,2.29
06/11/2021,04:15,24.2,1.2,7.59,8.63,103.3,6.91,20.57,2.12
06/11/2021,04:30,24.14,1.18,7.55,8.54,102.1,7.71,22.18,2.17
06/11/2021,04:45,24.07,1.17,7.5,8.45,100.8,7.11,23.39,2.22
06/11/2021,05:00,24.04,1.18,7.53,8.47,101.1,6.31,22.09,2.18
06/11/2021,05:15,23.99,1.19,7.51,8.47,100.9,6.29,21.89,2.11
06/11/2021,05:30,23.95,1.18,7.52,8.46,100.7,6.15,22.42,2.25
06/11/2021,05:45,23.92,1.21,7.56,8.56,101.8,6.54,23.58,2.3
06/11/2021,06:00,23.88,1.22,7.61,8.52,101.3,6.52,24.41,2.28
06/11/2021,06:15,23.88,1.25,7.67,8.56,101.8,6.57,24.64,2.34
06/11/2021,06:30,23.86,1.26,7.84,8.77,104.2,7.11,26.41,2.53
06/11/2021,06:45,23.86,1.27,7.94,8.88,105.5,7.02,26.73,2.55
06/11/2021,07:00,23.82,1.27,8.01,9.06,107.6,7.19,26.93,2.44
06/11/2021,07:15,23.78,1.26,7.84,8.77,104.1,7.64,24.6,2.32
06/11/2021,07:30,23.7,1.25,7.75,8.77,104,7.42,23.56,2.37
06/11/2021,07:45,23.65,1.25,7.74,8.88,105.2,6.87,25.73,2.37
06/11/2021,08:00,23.65,1.26,7.95,9.18,108.7,7.56,21.25,2.16
06/11/2021,08:15,23.61,1.25,7.99,9.2,108.9,7.16,22.4,2.23
06/11/2021,08:30,23.58,1.25,8.02,9.4,111.1,6.65,19.02,2.29
06/11/2021,08:45,23.56,1.27,8.11,9.43,111.5,6.64,19.27,2.04
06/11/2021,09:00,23.66,1.26,8.29,9.88,117.1,6.48,21.46,2.25
06/11/2021,09:15,23.73,1.26,8.55,10.25,121.6,6.59,23.24,2.19
06/11/2021,09:30,23.66,1.24,8.35,9.94,117.8,6.71,22.06,2.25
06/11/2021,09:45,23.7,1.24,8.31,10.28,121.9,6.23,24.56,2.24
06/11/2021,10:00,23.71,1.23,8.43,10.29,122,6.22,21.95,2.32
06/11/2021,10:15,23.82,1.24,8.53,10.66,126.6,6.14,24.08,2.3
06/11/2021,10:30,23.78,1.23,8.42,10.58,125.6,6.38,21.43,2.29
06/11/2021,10:45,23.8,1.23,8.45,10.47,124.3,6.34,20.76,2.19
06/11/2021,11:00,23.76,1.21,8.28,10.04,119.2,6.3,20.31,2.13
06/11/2021,11:15,23.67,1.18,7.84,9.64,114.1,6.46,23.22,2.08
06/11/2021,11:30,23.63,1.17,7.81,9.63,113.9,6.23,23.41,2.09
06/11/2021,11:45,23.68,1.19,8.08,10.31,122.2,6.06,23.17,2.29
06/11/2021,12:00,23.77,1.19,8.22,10.56,125.3,6.36,20.59,2.2
06/11/2021,12:15,23.89,1.19,8.49,10.93,130,6.27,20.05,2.2
06/11/2021,12:30,23.84,1.19,8.4,10.92,129.8,6.2,24.77,2.46
06/11/2021,12:45,23.82,1.18,8.32,10.81,128.4,6.53,23.43,2.27
06/11/2021,13:00,23.92,1.17,8.36,11.01,131,6.38,19.25,2.17
06/11/2021,13:15,24.02,1.15,8.41,10.99,131,6.71,20.09,2.11
06/11/2021,13:30,24.02,1.14,8.48,11.23,133.8,6.35,18.12,2.05
06/11/2021,13:45,24.07,1.16,8.5,11.35,135.5,6.59,21.34,2.33
06/11/2021,14:00,24.16,1.16,8.53,11.44,136.8,6.18,18.43,2.17
06/11/2021,14:15,24.16,1.16,8.52,11.77,140.6,6.23,23.08,2.43
06/11/2021,14:30,24.21,1.15,8.57,11.92,142.6,6.41,21.85,2.42
06/11/2021,14:45,24.19,1.14,8.54,11.99,143.4,6.35,21.02,2.34
06/11/2021,15:00,24.16,1.15,8.48,11.85,141.7,6.29,26.71,2.44
06/11/2021,15:15,24.1,1.14,8.39,11.69,139.6,6.12,25.58,2.54
06/11/2021,15:30,24.03,1.15,8.39,11.63,138.7,6.18,27.3,2.57
06/11/2021,15:45,23.98,1.16,8.42,11.78,140.3,6.37,24.54,2.52
06/11/2021,16:00,23.95,1.17,8.46,11.87,141.3,6.43,30.01,2.53
06/11/2021,16:15,23.91,1.16,8.42,11.75,139.8,6.56,32.81,2.86
06/11/2021,16:30,23.87,1.17,8.44,11.74,139.5,6.63,29.06,2.75
06/11/2021,16:45,23.87,1.18,8.47,11.68,138.9,7.25,26.59,2.84
06/11/2021,17:00,23.83,1.18,8.47,11.69,138.9,7.08,30.42,2.8
06/11/2021,17:15,23.81,1.19,8.48,11.67,138.6,7.27,30.76,3.18
06/11/2021,17:30,23.77,1.19,8.46,11.65,138.2,7.39,25.9,2.81
06/11/2021,17:45,23.73,1.19,8.46,11.61,137.7,6.91,26.58,3.01
06/11/2021,18:00,23.72,1.2,8.46,11.55,136.9,7.13,27.88,2.95
06/11/2021,18:15,23.69,1.21,8.49,11.5,136.2,7.22,25.28,2.95
06/11/2021,18:30,23.66,1.21,8.47,11.44,135.5,7.34,31.66,2.87
06/11/2021,18:45,23.64,1.21,8.46,11.33,134.1,7.85,29.02,2.99
06/11/2021,19:00,23.61,1.21,8.43,11.21,132.6,7.64,28.69,2.99
06/11/2021,19:15,23.56,1.21,8.42,11.13,131.5,7.02,29.52,2.82
06/11/2021,19:30,23.53,1.21,8.43,11.03,130.3,6.95,29.54,3.19
06/11/2021,19:45,23.51,1.21,8.42,10.88,128.5,7.11,32.85,3.21
06/11/2021,20:00,23.48,1.21,8.43,10.81,127.6,7.24,35.68,3.21
06/11/2021,20:15,23.46,1.21,8.44,10.77,127.1,6.51,32.85,3.21
06/11/2021,20:30,23.44,1.21,8.41,10.72,126.4,6.79,31.15,3.13
06/11/2021,20:45,23.43,1.21,8.4,10.64,125.4,7.47,33.34,3.29
06/11/2021,21:00,23.41,1.21,8.42,10.59,124.8,7.24,29.39,3.23
06/11/2021,21:15,23.4,1.22,8.4,10.53,124.1,7.18,30.59,3.2
06/11/2021,21:30,23.36,1.21,8.42,10.48,123.5,7.82,30.99,3.27
06/11/2021,21:45,23.32,1.21,8.39,10.42,122.7,6.81,29.39,2.93
06/11/2021,22:00,23.31,1.21,8.35,10.39,122.2,6.3,28.87,3.02
06/11/2021,22:15,23.31,1.22,8.37,10.38,122.1,7.59,31.33,3.2
06/11/2021,22:30,23.28,1.21,8.35,10.26,120.6,6.53,30,2.99
06/11/2021,22:45,23.27,1.22,8.29,10.15,119.4,6.9,29.43,2.94
06/11/2021,23:00,23.2,1.21,8.26,10.08,118.4,6.49,28.92,3.08
06/11/2021,23:15,23.19,1.21,8.27,10.04,117.9,6.39,29.01,3.1
06/11/2021,23:30,23.12,1.21,8.26,9.98,117.1,6.51,28.3,3.1
06/11/2021,23:45,23.12,1.21,8.24,9.95,116.7,7.57,28.37,2.96
06/12/2021,00:00,23.12,1.22,8.26,9.91,116.1,7.9,30.81,2.99
06/12/2021,00:15,23.12,1.2,8.26,9.83,115.2,6.7,27.94,2.81
06/12/2021,00:30,23.1,1.22,8.25,9.74,114.1,7.35,29.12,3.12
06/12/2021,00:45,23.08,1.21,8.24,9.74,114.1,6.87,27.01,2.91
06/12/2021,01:00,23.07,1.22,8.19,9.61,112.6,7.67,27.88,3.01
06/12/2021,01:15,23.05,1.21,8.17,9.59,112.3,7.32,28.15,2.97
06/12/2021,01:30,23.03,1.22,8.13,9.49,111.1,7.14,28.94,2.96
06/12/2021,01:45,23.01,1.21,8.09,9.39,109.8,6.62,23.87,2.74
06/12/2021,02:00,22.97,1.21,8.11,9.44,110.3,5.97,25.45,2.91
06/12/2021,02:15,22.95,1.21,8.12,9.39,109.7,5.84,23.3,2.71
06/12/2021,02:30,22.91,1.21,8.1,9.34,109.1,6.41,27.84,2.82
06/12/2021,02:45,22.9,1.22,8.07,9.25,108,6.52,28.22,2.88
06/12/2021,03:00,22.89,1.22,8.03,9.19,107.3,6.83,28.52,2.87
06/12/2021,03:15,22.84,1.21,8.01,9.14,106.6,7.22,25.59,2.82
06/12/2021,03:30,22.83,1.21,8.01,9.12,106.4,6.85,23.92,2.67
06/12/2021,03:45,22.81,1.21,7.98,9.02,105.2,7.37,28.29,2.59
06/12/2021,04:00,22.79,1.21,7.97,8.97,104.5,6.66,26.45,2.79
06/12/2021,04:15,22.77,1.2,7.94,8.9,103.7,6.77,27.29,2.87
06/12/2021,04:30,22.76,1.2,7.9,8.84,102.9,7.83,28.55,2.84
06/12/2021,04:45,22.74,1.2,7.84,8.67,101,7.84,25.39,2.76
06/12/2021,05:00,22.69,1.2,7.82,8.59,99.9,6.85,25.89,2.66
06/12/2021,05:15,22.66,1.2,7.81,8.6,99.9,6.92,26.77,2.77
06/12/2021,05:30,22.58,1.2,7.83,8.65,100.4,5.64,26.26,2.6
06/12/2021,05:45,22.54,1.2,7.78,8.61,99.8,6.83,26.83,2.7
06/12/2021,06:00,22.51,1.2,7.8,8.6,99.7,6.94,25.19,2.6
06/12/2021,06:15,22.47,1.19,7.8,8.59,99.5,7.44,26.96,2.75
06/12/2021,06:30,22.41,1.18,7.84,8.77,101.5,7.3,24.36,2.45
06/12/2021,06:45,22.33,1.18,7.84,8.7,100.5,7.65,24.76,2.4
06/12/2021,07:00,22.31,1.17,7.74,8.7,100.5,7.49,27.21,2.55
06/12/2021,07:15,22.28,1.17,7.81,8.8,101.5,7.56,28.39,2.82
06/12/2021,07:30,22.26,1.18,7.83,8.85,102.1,7.26,27.77,2.59
06/12/2021,07:45,22.22,1.16,7.92,8.96,103.3,6.77,28.49,2.62
06/12/2021,08:00,22.11,1.16,7.71,8.71,100.1,7.16,25.3,2.52
06/12/2021,08:15,22.12,1.15,7.75,8.69,100,6.15,25.95,2.64
06/12/2021,08:30,22.13,1.15,7.69,8.49,97.7,7.15,25.25,2.28
06/12/2021,08:45,22.13,1.15,7.84,8.87,102.1,6.48,25.03,2.38
06/12/2021,09:00,22.14,1.15,7.87,8.89,102.3,6.61,22.33,2.51
06/12/2021,09:15,22.15,1.15,7.91,9.06,104.2,6.37,24.63,2.67
06/12/2021,09:30,22.16,1.16,7.99,9.2,105.9,6.59,20.66,2.46
06/12/2021,09:45,22.16,1.14,8.21,9.74,112.1,6.87,24.23,2.38
06/12/2021,10:00,22.18,1.14,8.22,9.88,113.7,6.43,22.86,2.45
06/12/2021,10:15,22.19,1.14,8.18,9.79,112.8,5.95,23.89,2.41
06/12/2021,10:30,22.21,1.12,8.19,9.98,114.9,6.02,24.65,2.34
06/12/2021,10:45,22.2,1.12,8.06,9.86,113.6,5.95,22.35,2.3
06/12/2021,11:00,22.18,1.13,8.08,9.92,114.3,6.36,24.65,2.44
06/12/2021,11:15,22.19,1.13,8.15,10,115.2,6.06,24.99,2.43
06/12/2021,11:30,22.22,1.12,8.21,10.18,117.3,6.42,25.62,2.31
06/12/2021,11:45,22.22,1.13,8.26,10.16,117.1,7.54,21.23,2.36
06/12/2021,12:00,22.26,1.12,8.36,10.39,119.8,6.3,23.17,2.51
06/12/2021,12:15,22.31,1.13,8.52,10.59,122.3,6.48,22.82,2.46
06/12/2021,12:30,22.35,1.15,8.66,10.95,126.5,6.84,25.04,2.59
06/12/2021,12:45,22.34,1.14,8.69,11.16,128.9,6.44,27.23,2.81
06/12/2021,13:00,22.33,1.14,8.69,11,127,6.47,29.14,2.89
06/12/2021,13:15,22.47,1.13,8.92,11.81,136.8,6.95,24.78,2.89
06/12/2021,13:30,22.53,1.13,9.02,12.52,145.1,7.48,30.27,3.08
06/12/2021,13:45,22.54,1.14,9,12.58,145.8,6.57,28.07,3.22
06/12/2021,14:00,22.62,1.14,9.05,13.09,152.1,6.89,23.54,2.92
06/12/2021,14:15,22.68,1.13,9.03,13.25,154,6.88,26.96,3.04
06/12/2021,14:30,22.82,1.13,9.15,14.03,163.5,6.96,24.26,2.87
06/12/2021,14:45,23.01,1.13,9.26,14.15,165.5,6.46,26.98,3.11
06/12/2021,15:00,22.86,1.13,9.12,13.75,160.3,6.83,28.76,3.1
06/12/2021,15:15,22.92,1.13,9.06,14.27,166.6,6.59,29.57,3.15
06/12/2021,15:30,22.98,1.13,9.05,14.33,167.5,6.34,26.8,3
06/12/2021,15:45,22.72,1.13,9.01,14.08,163.7,6.46,31.12,3.15
06/12/2021,16:00,22.73,1.13,8.95,14.14,164.5,6.47,31.8,3.23
06/12/2021,16:15,22.73,1.12,9.03,14.15,164.7,6.62,28.83,3
06/12/2021,16:30,22.81,1.13,9.23,15.2,177.1,6.68,31.79,3.5
06/12/2021,16:45,22.81,1.11,8.99,13.81,161,6.34,28.11,3
06/12/2021,17:00,22.8,1.1,8.99,13.74,160.1,6.18,30.93,2.84
06/12/2021,17:15,23,1.11,9.09,14.82,173.4,6.16,28.18,2.9
06/12/2021,17:30,23.02,1.09,9.23,15,175.5,5.74,28.71,2.92
06/12/2021,17:45,23.46,1.08,9.16,14.54,171.5,5.51,24.33,2.52
06/12/2021,18:00,23.39,1.06,9.04,13.46,158.5,5.59,26.81,2.7
06/12/2021,18:15,23.63,1.05,9.15,11.58,137.1,4.92,23.48,2
06/12/2021,18:30,23.47,1.06,8.97,13.32,157.1,5.25,23.07,1.73
06/12/2021,18:45,23.54,1.03,8.76,12.65,149.4,5.27,19.8,2.25